Flag for U.S.A. Weather past 2 weeks in Chula Vista, California, U.S.A.

Now
69 °F

Clear.


Feels Like: 69 °F
Forecast: 69 / 81 °F
Wind: No wind

Location: Brown Field Municipal Airport

Current Time: Jul 25, 2014 at 12:50:16 AM

Latest Report: Jul 24, 2014 at 11:53 PM


Visibility: 9 mi

Pressure: 29.87 "Hg

Humidity: 87%

Dew point: 65 °F

Location of Chula VistaLocation

Historic Weather in Chula Vista — Graph

°F

Chula Vista temperature yesterday

Maximum temperature yesterday: 83 °F (at 12:53 PM)
Minimum temperature yesterday: 64 °F (at 6:04 AM)
Average temperature yesterday: 73 °F

Past Weeks' High & Low Weather Summary

 TemperatureHumidityPressure
High84 °F (Jul 23, 1:53 PM)97% (Jul 24, 6:04 AM)30.06 "Hg (Jul 24, 6:04 AM)
Low62 °F (Jul 18, 4:53 AM)41% (Jul 23, 1:53 PM)29.75 "Hg (Jul 24, 5:53 PM)
Average70 °F75%29.96 "Hg
* Reported Jul 9 11:53 PM — Jul 24 11:53 PM, Chula Vista, Weather by CustomWeather, © 2014

Note: Actual official high and low records may vary slightly from our data, if they occured in-between our weather recording intervals... More about our weather records

Advertising

Chula Vista weather history for previous 24 hours

 ConditionsComfort  
Time TempWeatherWind HumidityBarometerVisibility
11:53 PM
Jul 24
69 °FClear.No wind87%29.87 "Hg9 mi
10:53 PM70 °FClear.No wind84%29.85 "Hg10 mi
9:53 PM70 °FClear.No wind84%29.84 "Hg10 mi
8:53 PM70 °FClear.No wind84%29.81 "Hg10 mi
7:53 PM73 °FSunny.7 mph74%29.79 "Hg10 mi
6:53 PM77 °FSunny.6 mph62%29.75 "Hg10 mi
5:53 PM80 °FSunny.8 mph58%29.75 "Hg10 mi
4:53 PM81 °FSunny.8 mph56%29.76 "Hg10 mi
3:53 PM83 °FSunny.9 mph53%29.77 "Hg10 mi
2:53 PM82 °FSunny.7 mph55%29.79 "Hg10 mi
1:53 PM82 °FSunny.9 mph55%29.79 "Hg10 mi
12:53 PM83 °FSunny.8 mph53%29.80 "Hg10 mi
11:53 AM79 °FSunny.8 mph62%29.83 "Hg10 mi
10:53 AM78 °FSunny.7 mph64%29.83 "Hg10 mi
9:53 AM77 °FSunny.5 mph66%29.85 "Hg10 mi
8:53 AM74 °FSunny.3 mph74%29.86 "Hg10 mi
7:59 AM67 °FFog.No wind97%29.88 "Hg2 mi
6:53 AM66 °FFog.No wind96%29.85 "Hg0 mi
6:04 AM64 °FFog.No wind97%29.86 "Hg5 mi
5:57 AM65 °FFog.No wind94%29.86 "Hg2 mi
4:58 AM65 °FFog.No wind94%29.86 "Hg3 mi
3:53 AM67 °FFog.No wind90%29.85 "Hg6 mi
2:53 AM66 °FClear.No wind90%29.86 "Hg8 mi
1:53 AM67 °FClear.3 mph90%29.87 "Hg9 mi
12:53 AM67 °FClear.No wind90%29.88 "Hg10 mi
Weather by CustomWeather, © 2014

See weather overviewHow to use our weather pages